Flag for U.S.A. Weather past 2 weeks in Columbus, Georgia, U.S.A.

Now
79 °F

Clear.


Feels Like: 83 °F
Forecast: 75 / 91 °F
Wind: No wind

Location: Columbus Metropolitan Airport

Current Time: Jul 31, 2015 at 4:08:09 AM

Latest Report: Jul 31, 2015 at 2:51 AM


Visibility: 10 mi

Pressure: 29.90 "Hg

Humidity: 88%

Dew point: 75 °F

Location of ColumbusLocation

Historic Weather in Columbus — Graph

°F

Columbus temperature yesterday

Maximum temperature yesterday: 93 °F (at 12:51 PM)
Minimum temperature yesterday: 77 °F (at 3:51 AM)
Average temperature yesterday: 83 °F

Past Weeks' High & Low Weather Summary

 TemperatureHumidityPressure
High98 °F (Jul 17, 4:51 PM)100% (Jul 25, 7:03 AM)30.03 "Hg (Jul 25, 7:03 AM)
Low71 °F (Jul 26, 6:51 AM)26% (Jul 16, 4:51 PM)29.79 "Hg (Jul 21, 5:51 PM)
Average84 °F66%29.93 "Hg
* Reported Jul 16 2:51 AM — Jul 31 2:51 AM, Columbus, Weather by CustomWeather, © 2015

Note: Actual official high and low records may vary slightly from our data, if they occured in-between our weather recording intervals... More about our weather records

Advertising

Columbus weather history for previous 24 hours

 ConditionsComfort  
Time TempWeatherWind HumidityBarometerVisibility
2:51 AM
Fri, Jul 31
79 °FClear.No wind88%29.90 "Hg10 mi
1:51 AM80 °FClear.No wind85%29.90 "Hg10 mi
12:51 AM80 °FClear.No wind85%29.91 "Hg10 mi
11:51 PM
Thu, Jul 30
80 °FClear.No wind85%29.93 "Hg10 mi
10:51 PM81 °FClear.3 mph82%29.93 "Hg10 mi
9:51 PM82 °FPassing clouds.3 mph82%29.93 "Hg10 mi
8:51 PM83 °FSunny.No wind72%29.89 "Hg10 mi
7:51 PM84 °FSunny.No wind70%29.88 "Hg10 mi
6:51 PM83 °FSunny.No wind72%29.86 "Hg10 mi
5:51 PM81 °FPassing clouds.3 mph74%29.89 "Hg10 mi
4:51 PM84 °FThunderstorms. Sunny.8 mph65%29.88 "Hg10 mi
3:55 PM88 °FThunderstorms. Partly sunny.No wind62%29.91 "Hg10 mi
2:51 PM91 °FPartly sunny.10 mph54%29.91 "Hg10 mi
1:51 PM92 °FOvercast.5 mph51%29.93 "Hg10 mi
12:51 PM93 °FScattered clouds.3 mph49%29.95 "Hg10 mi
11:51 AM92 °FScattered clouds.5 mph54%29.96 "Hg10 mi
10:51 AM89 °FSunny.5 mph61%29.96 "Hg10 mi
9:51 AM86 °FSunny.5 mph65%29.96 "Hg10 mi
8:51 AM82 °FSunny.7 mph74%29.95 "Hg10 mi
7:51 AM78 °FClear.8 mph84%29.94 "Hg10 mi
6:51 AM77 °FClear.No wind85%29.93 "Hg10 mi
5:51 AM77 °FClear.No wind85%29.91 "Hg10 mi
4:51 AM78 °FClear.No wind82%29.90 "Hg10 mi
Weather by CustomWeather, © 2015

See weather overviewHow to use our weather pages